NOAA NWS Hourly Roundups by Site

Regional Weather Roundup for Bismarck, ND

To Select Another Site Choose from List

Select Site:  

000
ASUS43 KBIS 110110
RWRBIS

NWR BROADCAST TEXT
NATIONAL WEATHER SERVICE BISMARCK ND
700 PM CST MON DEC 10 2018

NOTE: "FAIR" INDICATES FEW OR NO CLOUDS BELOW 12,000 FEET WITH NO
SIGNIFICANT WEATHER AND/OR OBSTRUCTIONS TO VISIBILITY.


CITY           SKY/WX    TMP DP  RH WIND       PRES   REMARKS
WILLISTON      CLOUDY    27  20  75 SW7       29.94S WCI  19
MINOT          CLOUDY    27  21  78 SE3       29.93F
MINOT AFB      CLOUDY    19  15  86 S6        29.93S WCI  11
BISMARCK       MOCLDY    27  21  78 E5        29.96F
DICKINSON      CLOUDY    32  18  56 W13       29.92S
GARRISON         N/A     26  22  84 CALM      29.93F
HETTINGER ARPT MOCLDY    25  17  72 CALM      29.96F
JAMESTOWN      CLOUDY    19  17  92 CALM      29.97R
CARRINGTON     FAIR      16  14  93 CALM      29.99S
HAZEN          FAIR      25  23  93 CALM      29.96S
LINTON           N/A     21  16  79 E6        29.99F WCI  14
MANDAN         FAIR      30  23  74 S5        29.96S
OAKES          FAIR      23  19  86 NW5       29.98S WCI  17
RUGBY          FAIR      16  16 100 S6        29.95F WCI   7
STANLEY        FAIR      27  25  93 SW5       29.92S
TIOGA          FAIR      27  25  93 SW8       29.93S WCI  18
WATFORD CITY   FAIR      30  21  69 SW3       29.94R
$$

CITY           SKY/WX    TMP DP  RH WIND       PRES   REMARKS
GRAND FORKS    CLOUDY    13  11  92 W3        29.99S
GRAND FORKS AF PTCLDY    14  12  91 CALM      29.98F
DEVILS LAKE    MOCLDY    12   9  87 CALM      29.97F
FARGO          CLOUDY    20  17  88 NW3       29.99F
CANDO          FAIR      12  12 100 CALM      29.98S
CAVALIER       FAIR      10   9  92 CALM      29.98S
GRAFTON        FAIR      16  14  93 CALM      30.01S
GWINNER          N/A     23  21  93 MISG      29.98S
LANGDON        FAIR       7   7 100 SW6       29.96R WCI  -3
ROLLA          FAIR      23  18  80 S6        29.93F WCI  16
WALHALLA         N/A     12  12 100 CALM      29.98S
$$

CITY           SKY/WX    TMP DP  RH WIND       PRES   REMARKS
ABERDEEN       CLOUDY    24  19  81 N5        29.99S WCI  18
MOBRIDGE       MOCLDY    24  17  74 CALM      29.95S
BUFFALO          N/A     31  17  56 NW10      29.94S
RAPID CITY     CLOUDY    25  15  66 NW6       29.99S WCI  18
GLASGOW        MOCLDY    22  20  92 CALM      29.94F
SIDNEY         CLOUDY    26  21  81 S6        29.95F WCI  19
WOLF POINT     MOCLDY    25  20  81 W8        29.96S WCI  16
GLENDIVE       MOCLDY    25  18  74 S7        29.97R WCI  17
MILES CITY     MOCLDY    22  20  92 SE7       29.98R WCI  13
BAKER          CLOUDY    29  20  69 W8        29.97S
$$

CITY           SKY/WX    TMP DP  RH WIND       PRES   REMARKS
BILLINGS       CLOUDY    39   7  26 SW14      30.00R
GREAT FALLS    CLOUDY    37  25  61 W18       30.00S
REGINA         MOCLDY    21  19  93 SE7       29.83R WCI  13
ESTEVAN        MOCLDY    27  23  86 S8        29.88F WCI  18
$$




 

View Past Reports for Bismarck, ND.

Products Courtesy of NOAA-NWS
NWS Information Parsing Script by Ken True at Saratoga Weather - Script by SE Lincoln Weather.